P/2022 M1 ( LONEOS-PanSTARRS )

Japanese version
Home page
Updated on September 29, 2022

---------------------------------------------------------------------

* Profile

Discovery Date June 29, 2022
Magnitude 21.1 mag
Discoverer Pan-STARRS 2 telescope (Haleakala)

* Pictures

* Orbital Elements

Epoch 2022 Aug. 9.0 TT = JDT 2459800.5
T 2022 Aug. 2.15389 TT                                  Rudenko
q   2.0623866            (2000.0)            P               Q
n   0.09059904     Peri.    4.37069     +0.84120289     +0.53566859
a   4.9096854      Node   322.93324     -0.49973521     +0.71810306
e   0.5799351      Incl.    7.02672     -0.20650042     +0.44428275
P  10.9
From 27 observations 2022 May 31-July 8, mean residual 0".2.

* Magnitudes Graph

        m1 = 1.0 + 5 log d + 55 log r(t - 40)

---------------------------------------------------------------------

The orbital elements are published on M.P.E.C. 2022-O01.
The magnitudes graphs are made with Comet for Windows.

---------------------------------------------------------------------

Copyright(C) Seiichi Yoshida (comet@aerith.net). All rights reserved.